This is the latest recevied weather packets stored in our database for station/object DB0ASF-4. If no packets are shown the sender has not sent any weather packets the latest 10 day(s).
| Time | Temp. | Humidity | Pressure | Rain* | Wind** | Luminosity | Snow |
|---|---|---|---|---|---|---|---|
| 1777918157 | 18.33° C | 59% | 1017.2 hPa | 0 mm | - | - | - |
| 1777917557 | 18.33° C | 59% | 1017.2 hPa | 0 mm | - | - | - |
| 1777916957 | 18.89° C | 59% | 1017.2 hPa | 0 mm | - | - | - |
| 1777916357 | 18.89° C | 58% | 1016.9 hPa | 0 mm | - | - | - |
| 1777915757 | 19.44° C | 56% | 1017 hPa | 0 mm | - | - | - |
| 1777915157 | 20° C | 54% | 1017.2 hPa | 0 mm | - | - | - |
| 1777914557 | 20° C | 53% | 1017.2 hPa | 0 mm | - | - | - |
| 1777913957 | 20.56° C | 53% | 1017.2 hPa | 0 mm | - | - | - |
| 1777913357 | 21.11° C | 51% | 1017.2 hPa | 0 mm | - | - | - |
| 1777912757 | 21.11° C | 49% | 1017.4 hPa | 0 mm | - | - | - |
| 1777912157 | 21.67° C | 48% | 1017.2 hPa | 0 mm | - | - | - |
| 1777911557 | 22.22° C | 48% | 1017.2 hPa | 0 mm | - | - | - |
| 1777910957 | 22.78° C | 47% | 1017.2 hPa | 0 mm | - | - | - |
| 1777910357 | 22.78° C | 46% | 1017.4 hPa | 0 mm | - | - | - |
| 1777909757 | 23.33° C | 45% | 1017.2 hPa | 0 mm | - | - | - |
| 1777909157 | 23.89° C | 44% | 1017.2 hPa | 0 mm | - | - | - |
| 1777908557 | 24.44° C | 43% | 1017.2 hPa | 0 mm | - | - | - |
| 1777907957 | 24.44° C | 43% | 1017.2 hPa | 0 mm | - | - | - |
| 1777907357 | 24.44° C | 45% | 1017.4 hPa | 0 mm | - | - | - |
| 1777906757 | 23.89° C | 45% | 1017.5 hPa | 0 mm | - | - | - |
| 1777906157 | 23.33° C | 46% | 1017.5 hPa | 0 mm | - | - | - |
| 1777905557 | 22.78° C | 45% | 1017.7 hPa | 0 mm | - | - | - |
| 1777904957 | 23.33° C | 45% | 1017.7 hPa | 0 mm | - | - | - |
| 1777904357 | 23.33° C | 44% | 1017.9 hPa | 0 mm | - | - | - |
| 1777903757 | 23.89° C | 44% | 1017.9 hPa | 0 mm | - | - | - |
* Rain latest hour (hover to see other rain measurements)
** Current wind speed in m/s (hover to see current wind gust speed)